IRIDIUM 72 [+]

Last updated on Fri Apr 27 2018 00:19:39 GMT+0000 (Coordinated Universal Time)

1 25343U 98032B 18116.45516252 -.00000036 00000-0 -19774-4 0 9999 2 25343 86.3932 92.9541 0002282 82.4763 277.6692 14.34214306 44009
UTC large
Height (km)
Speed (km/s)
/
Latitude / Longitude
Inclination (degrees)
Orbital Period (minutes)
Azimuth
Elevation
Range (km)
Doppler Factor

Next 0 passes for location: London (51.5072 / 0.1276)

Sorry there are no passes over London.